TimeAKST,TemperatureF,Dew PointF,Humidity,Sea Level PressureIn,VisibilityMPH,Wind Direction,Wind SpeedMPH,Gust SpeedMPH,PrecipitationIn,Events,Conditions,WindDirDegrees,DateUTC
12:53 AM,37.0,26.1,65,29.27,10.0,NNW,5.8,-,N/A,,Overcast,340,2013-01-02 09:53:00
1:53 AM,36.0,25.0,64,29.30,10.0,Calm,Calm,-,N/A,,Overcast,0,2013-01-02 10:53:00
3:53 AM,37.0,27.0,67,29.34,10.0,NW,4.6,-,N/A,,Overcast,310,2013-01-02 12:53:00
4:53 AM,36.0,27.0,70,29.35,10.0,NW,4.6,-,N/A,,Overcast,310,2013-01-02 13:53:00
5:53 AM,37.0,26.1,65,29.38,10.0,NNE,4.6,-,N/A,,Overcast,30,2013-01-02 14:53:00
6:53 AM,34.0,26.1,73,29.38,10.0,West,5.8,-,N/A,,Mostly Cloudy,270,2013-01-02 15:53:00
7:53 AM,41.0,21.9,47,29.39,10.0,South,6.9,-,N/A,,Scattered Clouds,190,2013-01-02 16:53:00
8:53 AM,37.0,26.1,65,29.40,10.0,NW,8.1,-,N/A,,Mostly Cloudy,310,2013-01-02 17:53:00
9:53 AM,37.0,26.1,65,29.42,10.0,North,4.6,-,N/A,,Mostly Cloudy,360,2013-01-02 18:53:00
10:53 AM,37.0,26.1,65,29.45,10.0,Calm,Calm,-,N/A,,Overcast,0,2013-01-02 19:53:00
11:53 AM,37.0,26.1,65,29.47,10.0,North,4.6,-,N/A,,Overcast,350,2013-01-02 20:53:00
12:53 PM,35.1,27.0,72,29.47,10.0,NNW,3.5,-,N/A,,Mostly Cloudy,330,2013-01-02 21:53:00
1:53 PM,35.1,27.0,72,29.47,10.0,NNE,3.5,-,N/A,,Mostly Cloudy,20,2013-01-02 22:53:00
2:53 PM,36.0,28.0,73,29.48,10.0,WNW,5.8,-,N/A,,Mostly Cloudy,290,2013-01-02 23:53:00
3:53 PM,34.0,28.9,82,29.48,10.0,WNW,6.9,-,N/A,,Overcast,290,2013-01-03 00:53:00
4:53 PM,34.0,30.0,85,29.49,10.0,NW,3.5,-,N/A,,Mostly Cloudy,320,2013-01-03 01:53:00
5:53 PM,33.1,30.0,89,29.50,10.0,Calm,Calm,-,N/A,,Partly Cloudy,0,2013-01-03 02:53:00
6:53 PM,32.0,28.9,88,29.50,10.0,WNW,3.5,-,N/A,,Clear,290,2013-01-03 03:53:00
7:53 PM,28.9,26.1,89,29.51,10.0,WNW,3.5,-,N/A,,Partly Cloudy,300,2013-01-03 04:53:00
8:53 PM,28.0,26.1,92,29.52,10.0,Calm,Calm,-,N/A,,Mostly Cloudy,0,2013-01-03 05:53:00
9:53 PM,30.9,27.0,85,29.54,10.0,WNW,3.5,-,N/A,,Scattered Clouds,290,2013-01-03 06:53:00
10:53 PM,30.9,28.0,89,29.54,10.0,Calm,Calm,-,N/A,,Overcast,0,2013-01-03 07:53:00
11:53 PM,32.0,28.9,88,29.53,10.0,West,10.4,-,N/A,,Overcast,260,2013-01-03 08:53:00